EN

Hourly Weather Bartoszowek

Today, 16 January, Saturday

Time Temperature Precipitation Wind Pressure Humidity
00:00 -7°C° 0.1 mm 3 mps 748 mmHg 95%
01:00 -8°C° 0 mm 4 mps 747 mmHg 96%
02:00 -8°C° 0.1 mm 4 mps 747 mmHg 95%
03:00 -8°C° 0.1 mm 4 mps 747 mmHg 95%
04:00 -8°C° 0.1 mm 4 mps 747 mmHg 94%
05:00 -8°C° 0.1 mm 4 mps 747 mmHg 94%
06:00 -9°C° 0.1 mm 4 mps 747 mmHg 94%
07:00 -9°C° 0.1 mm 4 mps 747 mmHg 94%
08:00 -9°C° 0.1 mm 4 mps 747 mmHg 93%
09:00 -9°C° 0.1 mm 4 mps 747 mmHg 92%
10:00 -10°C° 0.1 mm 5 mps 747 mmHg 91%
11:00 -8°C° 0 mm 5 mps 747 mmHg 90%
12:00 -8°C° 0 mm 5 mps 747 mmHg 88%
13:00 -7°C° 0 mm 5 mps 746 mmHg 87%
14:00 -7°C° 0 mm 5 mps 746 mmHg 88%
15:00 -7°C° 0 mm 5 mps 745 mmHg 88%
16:00 -7°C° 0 mm 5 mps 745 mmHg 89%
17:00 -8°C° 0 mm 6 mps 745 mmHg 90%
18:00 -9°C° 0 mm 6 mps 744 mmHg 90%
19:00 -9°C° 0 mm 6 mps 744 mmHg 91%
20:00 -9°C° 0.2 mm 6 mps 744 mmHg 91%
21:00 -9°C° 0.2 mm 7 mps 744 mmHg 92%
22:00 -9°C° 0.2 mm 7 mps 744 mmHg 93%
23:00 -9°C° 0.3 mm 6 mps 744 mmHg 94%

Tomorrow, 17 January, Sunday

Time Temperature Precipitation Wind Pressure Humidity
00:00 -9°C° 0.3 mm 6 mps 743 mmHg 94%
01:00 -9°C° 0.3 mm 6 mps 743 mmHg 94%
02:00 -10°C° 0.4 mm 5 mps 743 mmHg 94%
03:00 -9°C° 0.4 mm 4 mps 743 mmHg 95%
04:00 -9°C° 0.4 mm 3 mps 743 mmHg 95%
05:00 -9°C° 0.1 mm 2 mps 743 mmHg 95%
06:00 -10°C° 0.1 mm 1 mps 744 mmHg 94%
07:00 -11°C° 0.1 mm 1 mps 744 mmHg 94%
08:00 -11°C° 0 mm 0 mps 744 mmHg 93%
09:00 -11°C° 0 mm 0 mps 744 mmHg 92%
10:00 -11°C° 0 mm 0 mps 745 mmHg 91%
11:00 -10°C° 0 mm 0 mps 745 mmHg 90%
12:00 -10°C° 0 mm 0 mps 745 mmHg 89%
13:00 -9°C° 0 mm 1 mps 745 mmHg 87%
14:00 -10°C° 0 mm 1 mps 745 mmHg 89%
15:00 -12°C° 0 mm 1 mps 745 mmHg 91%
16:00 -13°C° 0 mm 1 mps 745 mmHg 93%
17:00 -13°C° 0 mm 1 mps 746 mmHg 93%
18:00 -14°C° 0 mm 1 mps 746 mmHg 93%
19:00 -14°C° 0 mm 1 mps 746 mmHg 93%
20:00 -14°C° 0 mm 1 mps 747 mmHg 92%
21:00 -14°C° 0 mm 1 mps 747 mmHg 91%
22:00 -14°C° 0 mm 1 mps 747 mmHg 90%
23:00 -14°C° 0 mm 1 mps 747 mmHg 89%

Day after tomorrow, 18 January, Monday

Time Temperature Precipitation Wind Pressure Humidity
00:00 -13°C° 0 mm 1 mps 747 mmHg 88%
01:00 -13°C° 0 mm 1 mps 747 mmHg 87%
02:00 -13°C° 0 mm 1 mps 747 mmHg 86%
03:00 -13°C° 0 mm 1 mps 747 mmHg 86%
04:00 -13°C° 0 mm 1 mps 747 mmHg 85%
05:00 -12°C° 0 mm 1 mps 747 mmHg 84%
06:00 -12°C° 0 mm 1 mps 747 mmHg 83%
07:00 -12°C° 0 mm 1 mps 747 mmHg 82%
08:00 -11°C° 0 mm 1 mps 747 mmHg 82%
09:00 -9°C° 0 mm 1 mps 747 mmHg 83%
10:00 -8°C° 0 mm 1 mps 747 mmHg 84%
11:00 -7°C° 0 mm 1 mps 747 mmHg 85%
12:00 -4°C° 0 mm 1 mps 747 mmHg 87%
13:00 -3°C° 0 mm 1 mps 747 mmHg 89%
14:00 -3°C° 0.2 mm 1 mps 746 mmHg 92%
15:00 -4°C° 0.2 mm 2 mps 746 mmHg 94%
16:00 -4°C° 0.2 mm 2 mps 746 mmHg 97%
17:00 -3°C° 0.1 mm 2 mps 746 mmHg 96%
18:00 -4°C° 0.1 mm 3 mps 746 mmHg 96%
19:00 -2°C° 0.1 mm 3 mps 746 mmHg 96%
20:00 -4°C° 0.2 mm 3 mps 746 mmHg 96%
21:00 -4°C° 0.2 mm 3 mps 746 mmHg 96%
22:00 -4°C° 0.2 mm 4 mps 746 mmHg 96%
23:00 -4°C° 0.1 mm 4 mps 746 mmHg 95%

19 January, Tuesday

Time Temperature Precipitation Wind Pressure Humidity
00:00 -4°C° 0.1 mm 4 mps 745 mmHg 95%
01:00 -3°C° 0.1 mm 4 mps 745 mmHg 94%
02:00 -3°C° 0 mm 4 mps 745 mmHg 94%
03:00 -3°C° 0 mm 4 mps 745 mmHg 94%
04:00 -2°C° 0 mm 3 mps 745 mmHg 94%
05:00 -2°C° 0 mm 3 mps 745 mmHg 93%
06:00 -2°C° 0 mm 3 mps 744 mmHg 92%
07:00 -4°C° 0 mm 3 mps 744 mmHg 91%
08:00 -2°C° 0 mm 3 mps 744 mmHg 90%
09:00 -2°C° 0 mm 3 mps 744 mmHg 89%
10:00 -2°C° 0 mm 3 mps 744 mmHg 89%
11:00 -1°C° 0 mm 3 mps 743 mmHg 88%
12:00 -2°C° 0 mm 4 mps 743 mmHg 87%
13:00 -1°C° 0 mm 5 mps 742 mmHg 87%
14:00 -1°C° 0.1 mm 5 mps 741 mmHg 87%
15:00 -1°C° 0.1 mm 5 mps 741 mmHg 87%
16:00 -1°C° 0.1 mm 5 mps 740 mmHg 88%
17:00 -1°C° 0.1 mm 5 mps 740 mmHg 87%
18:00 -2°C° 0.1 mm 6 mps 740 mmHg 87%
19:00 -2°C° 0.1 mm 6 mps 740 mmHg 86%
20:00 -2°C° 0 mm 6 mps 739 mmHg 87%
21:00 -1°C° 0 mm 6 mps 739 mmHg 87%
22:00 0°C° 0 mm 5 mps 739 mmHg 88%
23:00 0°C° 0 mm 5 mps 739 mmHg 87%

20 January, Wednesday

Time Temperature Precipitation Wind Pressure Humidity
00:00 0°C° 0 mm 5 mps 739 mmHg 87%
01:00 0°C° 0 mm 5 mps 739 mmHg 86%
02:00 0°C° 0 mm 5 mps 739 mmHg 86%
03:00 0°C° 0 mm 5 mps 739 mmHg 86%
04:00 0°C° 0 mm 5 mps 738 mmHg 85%
05:00 0°C° 0 mm 5 mps 738 mmHg 83%
06:00 0°C° 0 mm 5 mps 738 mmHg 82%
07:00 -1°C° 0 mm 6 mps 738 mmHg 80%
08:00 -1°C° 0 mm 6 mps 738 mmHg 79%
09:00 0°C° 0 mm 7 mps 738 mmHg 77%
10:00 0°C° 0 mm 7 mps 738 mmHg 75%
11:00 0°C° 0 mm 7 mps 738 mmHg 76%
12:00 0°C° 0 mm 7 mps 737 mmHg 77%
13:00 0°C° 0 mm 7 mps 737 mmHg 77%
14:00 +1°C° 0 mm 6 mps 737 mmHg 76%
15:00 +1°C° 0 mm 6 mps 737 mmHg 76%
16:00 +1°C° 0 mm 6 mps 737 mmHg 75%
17:00 +1°C° 0 mm 6 mps 736 mmHg 74%
18:00 +1°C° 0 mm 6 mps 736 mmHg 73%
19:00 +1°C° 0 mm 6 mps 736 mmHg 72%
20:00 +1°C° 0 mm 6 mps 736 mmHg 71%
21:00 -1°C° 0 mm 6 mps 736 mmHg 70%
22:00 -1°C° 0 mm 6 mps 736 mmHg 69%
23:00 0°C° 0 mm 5 mps 736 mmHg 72%

21 January, Thursday

Time Temperature Precipitation Wind Pressure Humidity
00:00 0°C° 0 mm 5 mps 735 mmHg 74%
01:00 0°C° 0 mm 5 mps 735 mmHg 77%
02:00 0°C° 0 mm 5 mps 734 mmHg 80%
03:00 -1°C° 0 mm 5 mps 734 mmHg 83%
04:00 -1°C° 0 mm 5 mps 734 mmHg 85%
05:00 -1°C° 0 mm 4 mps 733 mmHg 86%
06:00 0°C° 0 mm 3 mps 733 mmHg 87%
07:00 +1°C° 0 mm 2 mps 733 mmHg 88%
08:00 +2°C° 0 mm 2 mps 733 mmHg 89%
09:00 +2°C° 0 mm 2 mps 733 mmHg 91%
10:00 +2°C° 0 mm 2 mps 732 mmHg 92%
11:00 +1°C° 0 mm 3 mps 732 mmHg 93%
12:00 +2°C° 0 mm 3 mps 732 mmHg 94%
13:00 +1°C° 0 mm 4 mps 732 mmHg 96%
14:00 +1°C° 0 mm 4 mps 733 mmHg 91%
15:00 0°C° 0 mm 4 mps 733 mmHg 87%
16:00 0°C° 0 mm 5 mps 734 mmHg 82%
17:00 0°C° 0 mm 5 mps 734 mmHg 83%
18:00 0°C° 0 mm 4 mps 735 mmHg 84%
19:00 -1°C° 0 mm 4 mps 735 mmHg 85%
20:00 -1°C° 0 mm 4 mps 736 mmHg 85%
21:00 -1°C° 0 mm 4 mps 736 mmHg 85%
22:00 0°C° 0 mm 4 mps 737 mmHg 86%
23:00 -1°C° 0 mm 4 mps 737 mmHg 86%
Show more

We Need Your Consent

Meteoprog and our Service Providers may store and access personal data such as cookies, device identifiers or other similar technologies on your device and process such data to personalise content and ads, as well as provide social media features and to analyse the traffic.

  • Store and/or access information on your device

    Cookies, device identifiers or other information can be stored or accessed on your device for the purposes indicated above.

  • Personalised ads and content, ad and content measurement, audience insights, and products development

    Ads and content can be personalised based on a profile. More data can be added to better personalise ads and content. Ad and content performance can be measured. Insights about the audience who saw the ads and content can be derived. Such data can be used to develop or improve user’s experience, systems and software.

By clicking ‘I Agree’ you will allow the use of indicated cookies, device identifiers, web beacons or other similar technologies. Your settings can be changed in the browser on your device.

For certain purposes, legitimate interests may be relied on, rather than consent. You can read more about this in our Privacy and Cookie Policy.